User: anonymous   Login
Location: Beuerbach
(48.1459°N, 10.9174°E)
Time: 18:53:31
(UTC+00:00)
Language:

SJ 16-02 - Orbit

View from above orbital plane
View from above orbital plane
View from above satellite
View from above satellite

Ground track
Ground track

The orbit data is extracted from the following two-line orbital elements,

1 41634U 16043A   24202.50444010  .00004183  00000-0  44223-3 0  9994
2 41634  75.0017 154.3490 0009141 287.7312  72.2877 14.89435850437263
Epoch (UTC): 20 July 2024 12:06:23
Eccentricity: 0.0009141
inclination: 75.0017°
perigee height: 593 km
apogee height: 606 km
right ascension of ascending node: 154.3490°
argument of perigee: 287.7312°
revolutions per day: 14.89435850
mean anomaly at epoch: 72.2877°
orbit number at epoch: 43726

The dashed part of the orbit path shows where the satellite is in the earth's shadow,  

DLR